Weather History for KCVX - September, 2012

Change the Weather History Date:

Saturday, September 15, 2012

  Actual Average Record
Temperature  
Mean Temperature 58 °F -  
Max Temperature 65 °F 69 °F 84 °F (2004)
Min Temperature 52 °F 57 °F 44 °F (2007)
Degree Days  
Heating Degree Days 6    
Growing Degree Days 8 (Base 50)    
Moisture  
Dew Point 48 °F    
Average Humidity 69    
Maximum Humidity 89    
Minimum Humidity 52    
Precipitation  
Precipitation 0.00 in - - ()
Sea Level Pressure  
Sea Level Pressure 30.27 in    
Wind  
Wind Speed 7 mph (NNE)    
Max Wind Speed 14 mph    
Max Gust Speed 17 mph    
Visibility 10 miles    
Events      
Averages and records for this station are not official NWS values.
T = Trace of Precipitation, MM = Missing Value Source: NWS Daily Summary

Daily Weather History Graph

Daily Weather History Graph

Search for Another Location

Airport or City:

Trip Planner

Search our weather history database for the weather conditions in past years. The results will help you decide how hot, cold, wet, or windy it might be!

Date:

Astronomy

Sep. 15, 2012 Rise Set
Actual Time 7:20 AM EDT 7:51 PM EDT
Civil Twilight 6:50 AM EDT 8:20 PM EDT
Nautical Twilight 6:15 AM EDT 8:55 PM EDT
Astronomical Twilight 5:39 AM EDT 9:31 PM EDT
Moon 6:51 AM EDT (9/15) 7:18 PM EDT (9/15)
Length of Visible Light 13h 30m
Length of Day
12h 30m
Waning Crescent, 0% of the Moon is Illuminated
Sep 15
Waning Crescent
Sep 15
New
Sep 22
First Quarter
Sep 29
Full
Oct 8
Last Quarter

Hourly Weather History & Observations

Time (EDT) Temp. Dew Point Humidity Pressure Visibility Wind Dir Wind Speed Gust Speed Precip Events Conditions
12:34 AM 59.0 °F 44.1 °F 58% 30.33 in 10.0 mi NW 13.8 mph 17.3 mph N/A   Overcast
12:54 AM 58.5 °F 44.1 °F 59% 30.33 in 10.0 mi NW 10.4 mph - N/A   Scattered Clouds
1:14 AM 58.1 °F 44.6 °F 61% 30.32 in 10.0 mi NNW 10.4 mph 17.3 mph N/A   Clear
1:34 AM 57.7 °F 46.9 °F 67% 30.32 in 10.0 mi NW 6.9 mph - N/A   Scattered Clouds
1:54 AM 57.6 °F 47.8 °F 70% 30.32 in 10.0 mi NW 6.9 mph - N/A   Scattered Clouds
2:14 AM 57.6 °F 48.4 °F 71% 30.32 in 10.0 mi NNW 8.1 mph - N/A   Scattered Clouds
2:35 AM 57.6 °F 48.4 °F 71% 30.32 in 10.0 mi NNW 4.6 mph - N/A   Scattered Clouds
2:54 AM 57.7 °F 48.0 °F 70% 30.31 in 10.0 mi NNW 6.9 mph - N/A   Scattered Clouds
3:14 AM 57.9 °F 47.7 °F 69% 30.31 in 10.0 mi NW 5.8 mph - N/A   Scattered Clouds
3:34 AM 57.9 °F 48.4 °F 71% 30.31 in 10.0 mi NNW 9.2 mph - N/A   Scattered Clouds
3:54 AM 58.1 °F 47.8 °F 69% 30.31 in 10.0 mi NW 8.1 mph - N/A   Mostly Cloudy
4:15 AM 57.2 °F 47.5 °F 70% 30.31 in 10.0 mi NW 6.9 mph - N/A   Scattered Clouds
4:34 AM 58.1 °F 48.0 °F 69% 30.31 in 10.0 mi North 8.1 mph - N/A   Mostly Cloudy
4:54 AM 57.6 °F 48.0 °F 70% 30.31 in 10.0 mi North 6.9 mph - N/A   Scattered Clouds
5:14 AM 57.4 °F 48.0 °F 71% 30.32 in 10.0 mi North 3.5 mph - N/A   Scattered Clouds
5:34 AM 57.7 °F 48.9 °F 72% 30.32 in 10.0 mi North 5.8 mph - N/A   Mostly Cloudy
5:54 AM 57.6 °F 48.6 °F 72% 30.32 in 10.0 mi North 4.6 mph - N/A   Mostly Cloudy
6:14 AM 56.8 °F 47.1 °F 70% 30.32 in 10.0 mi North 3.5 mph - N/A   Mostly Cloudy
6:34 AM 53.6 °F 48.4 °F 82% 30.33 in 10.0 mi SE 3.5 mph - N/A   Mostly Cloudy
6:54 AM 53.1 °F 48.6 °F 85% 30.33 in 10.0 mi SSE 3.5 mph - N/A   Mostly Cloudy
7:14 AM 52.3 °F 48.6 °F 87% 30.34 in 10.0 mi SSE 4.6 mph - N/A   Mostly Cloudy
7:34 AM 53.1 °F 49.1 °F 86% 30.34 in 10.0 mi SE 3.5 mph - N/A   Mostly Cloudy
7:54 AM 52.2 °F 48.6 °F 88% 30.35 in 10.0 mi SE 3.5 mph - N/A   Scattered Clouds
8:15 AM 52.5 °F 49.5 °F 89% 30.35 in 10.0 mi SE 3.5 mph - N/A   Scattered Clouds
8:34 AM 55.4 °F 50.7 °F 84% 30.35 in 10.0 mi ESE 5.8 mph - N/A   Scattered Clouds
8:54 AM 55.4 °F 50.9 °F 85% 30.35 in 10.0 mi East 8.1 mph - N/A   Scattered Clouds
9:15 AM 55.8 °F 50.0 °F 81% 30.36 in 10.0 mi East 6.9 mph - N/A   Scattered Clouds
9:34 AM 56.3 °F 50.0 °F 79% 30.37 in 10.0 mi East 8.1 mph - N/A   Clear
9:54 AM 57.4 °F 50.5 °F 78% 30.35 in 10.0 mi East 8.1 mph - N/A   Clear
10:15 AM 57.6 °F 50.5 °F 77% 30.35 in 10.0 mi East 5.8 mph - N/A   Clear
10:34 AM 57.4 °F 50.2 °F 77% 30.35 in 10.0 mi ESE 6.9 mph - N/A   Clear
10:54 AM 58.8 °F 49.8 °F 72% 30.35 in 10.0 mi ESE 5.8 mph - N/A   Clear
11:15 AM 60.3 °F 48.6 °F 65% 30.34 in 10.0 mi East 5.8 mph - N/A   Clear
11:34 AM 60.3 °F 48.9 °F 66% 30.33 in 10.0 mi East 4.6 mph - N/A   Clear
11:54 AM 61.2 °F 48.6 °F 63% 30.33 in 10.0 mi SE 4.6 mph - N/A   Clear
12:14 PM 61.9 °F 46.6 °F 57% 30.32 in 10.0 mi Calm Calm - N/A   Clear
12:34 PM 63.7 °F 47.8 °F 56% 30.32 in 10.0 mi NNW 6.9 mph - N/A   Scattered Clouds
12:54 PM 63.0 °F 48.6 °F 59% 30.31 in 10.0 mi NNE 6.9 mph - N/A   Scattered Clouds
1:14 PM 63.9 °F 47.7 °F 56% 30.30 in 10.0 mi North 8.1 mph - N/A   Clear
1:34 PM 64.4 °F 46.2 °F 52% 30.30 in 10.0 mi North 6.9 mph - N/A   Clear
1:55 PM 64.6 °F 46.9 °F 53% 30.29 in 10.0 mi NNW 6.9 mph - N/A   Clear
2:14 PM 64.9 °F 47.1 °F 52% 30.28 in 10.0 mi NNW 6.9 mph - N/A   Clear
2:55 PM 64.6 °F 47.1 °F 53% 30.26 in 10.0 mi North 4.6 mph - N/A   Clear
3:14 PM 65.1 °F 47.8 °F 54% 30.25 in 10.0 mi WNW 5.8 mph - N/A   Clear
3:34 PM 64.6 °F 47.5 °F 54% 30.25 in 10.0 mi North 6.9 mph - N/A   Clear
3:55 PM 64.4 °F 47.5 °F 54% 30.25 in 10.0 mi North 5.8 mph - N/A   Clear
4:14 PM 63.9 °F 47.5 °F 55% 30.24 in 10.0 mi North 8.1 mph - N/A   Clear
4:34 PM 63.9 °F 47.8 °F 56% 30.23 in 10.0 mi North 6.9 mph - N/A   Clear
4:55 PM 63.7 °F 47.7 °F 56% 30.23 in 10.0 mi North 6.9 mph - N/A   Clear
5:14 PM 64.0 °F 47.7 °F 55% 30.22 in 10.0 mi North 4.6 mph - N/A   Clear
5:34 PM 63.7 °F 47.8 °F 56% 30.22 in 10.0 mi North 5.8 mph - N/A   Clear
5:54 PM 63.3 °F 47.5 °F 56% 30.21 in 10.0 mi North 4.6 mph - N/A   Clear
6:14 PM 63.0 °F 47.7 °F 57% 30.20 in 10.0 mi North 4.6 mph - N/A   Clear
6:34 PM 62.6 °F 47.3 °F 57% 30.19 in 10.0 mi North 4.6 mph - N/A   Clear
6:54 PM 62.4 °F 47.5 °F 58% 30.18 in 10.0 mi North 3.5 mph - N/A   Clear
7:14 PM 61.7 °F 47.1 °F 59% 30.18 in 10.0 mi Calm Calm - N/A   Clear
7:35 PM 61.0 °F 47.1 °F 60% 30.17 in 10.0 mi ENE 3.5 mph - N/A   Clear
7:54 PM 60.4 °F 46.4 °F 60% 30.17 in 10.0 mi Calm Calm - N/A   Clear
8:14 PM 56.3 °F 48.6 °F 75% 30.18 in 10.0 mi Calm Calm - N/A   Clear
8:35 PM 54.7 °F 48.7 °F 80% 30.17 in 10.0 mi Calm Calm - N/A   Clear
8:54 PM 54.3 °F 48.7 °F 81% 30.17 in 10.0 mi Calm Calm - N/A   Clear
9:14 PM 52.3 °F 48.6 °F 87% 30.17 in 10.0 mi Calm Calm - N/A   Clear
9:35 PM 53.1 °F 48.4 °F 84% 30.17 in 10.0 mi Calm Calm - N/A   Clear
9:54 PM 54.7 °F 49.1 °F 81% 30.16 in 10.0 mi SE 4.6 mph - N/A   Clear
10:14 PM 53.6 °F 48.7 °F 84% 30.16 in 10.0 mi SSE 4.6 mph - N/A   Clear
10:34 PM 54.0 °F 48.6 °F 82% 30.15 in 10.0 mi SE 4.6 mph - N/A   Clear
10:54 PM 55.6 °F 49.3 °F 79% 30.15 in 10.0 mi SE 4.6 mph - N/A   Clear
11:14 PM 55.4 °F 49.1 °F 79% 30.14 in 10.0 mi SE 5.8 mph - N/A   Clear
11:34 PM 54.9 °F 48.7 °F 80% 30.14 in 10.0 mi SE 6.9 mph - N/A   Clear
11:54 PM 54.5 °F 48.7 °F 81% 30.14 in 10.0 mi SE 5.8 mph - N/A   Clear